Regional Weather Roundup
Issued by NWS

Home | Current Version | Previous Version | Text Only | Print | Product List | Glossary Off
Versions: 1 2 3 4 5 6 7 8 9 10 11 12 13 14 15 16 17 18 19 20 21 22 23 24 25 26 27 28 29 30 31 32 33 34 35 36 37 38 39 40 41 42 43 44 45 46 47 48 49 50

515
ASUS43 KFSD 221802
RWRSD

WEATHER ROUNDUP FOR SOUTH DAKOTA
NATIONAL WEATHER SERVICE SIOUX FALLS SD
100 PM CDT SUN APR 22 2018

NOTE: "FAIR" INDICATES FEW OR NO CLOUDS BELOW 12,000 FEET WITH NO
SIGNIFICANT WEATHER AND/OR OBSTRUCTIONS TO VISIBILITY.


SDZ001>005-009-010-012>017-221900-
NORTHWEST AND NORTH CENTRAL SOUTH DAKOTA

CITY           SKY/WX    TMP DP  RH WIND       PRES   REMARKS
BUFFALO          N/A     63  24  22 NE13      30.07S
FAITH            N/A     58  41  53 S13       30.13F
MOBRIDGE       SUNNY     60  40  47 S13G23    30.15F
$$

SDZ012>016-024>037-041>051-057-063-072>074-221900-
SOUTHWEST AND SOUTH CENTRAL SOUTH DAKOTA

CITY           SKY/WX    TMP DP  RH WIND       PRES   REMARKS
RAPID CTY ARPT SUNNY     59  39  47 CALM      30.14F
PIERRE         SUNNY     58  38  47 S18       30.19F
CUSTER         SUNNY     57  32  38 VRB5      30.16S
PHILIP         SUNNY     59  40  49 S7        30.16F
PINE RIDGE     MOSUNNY   56  41  57 VRB3      30.16F
SPEARFISH      FAIR      59  37  44 CALM      30.14F
WINNER         FAIR      55  36  48 S13       30.23F
$$

SDZ004>011-016>023-039-040-221900-
NORTHEAST SOUTH DAKOTA

CITY           SKY/WX    TMP DP  RH WIND       PRES   REMARKS
ABERDEEN       SUNNY     61  36  39 S17G25    30.23F
WATERTOWN      SUNNY     56  35  45 S12       30.26F
BROOKINGS      SUNNY     56  37  49 SE13      30.27F
SISSETON         N/A     61  40  45 S16       30.24F
$$

SDZ017-020-022-023-036>040-048>070-221900-
SOUTHEAST SOUTH DAKOTA

CITY           SKY/WX    TMP DP  RH WIND       PRES   REMARKS
SIOUX FALLS    MOSUNNY   60  35  39 E15       30.27F
HURON          SUNNY     57  34  41 S12       30.25F
CHAMBERLAIN    SUNNY     58  41  52 SE8       30.24F
MITCHELL       SUNNY     57  34  41 S9G18     30.26F
YANKTON        SUNNY     58  32  37 SE9       30.26F
$$

ABBREVIATIONS USED IN REMARKS
   TC - TEMPERATURE IN CELSIUS
  WCI - WIND CHILL INDEX
   HX - HEAT INDEX
  VSB - VISIBILITY





USA.gov is the U.S. government's official web portal to all federal, state and local government web resources and services.